Tracking 34717 objects as of 14-Jul-2026
HD Live streaming from Space Station
objects crossing your sky now

GSLV R/B

Track GSLV R/B now!
10-day predictions


NORAD ID: 58991
Int'l Code: 2024-033B
Perigee: 179.9 km
Apogee: 20,318.3 km
Inclination: 19.3 °
Period: 355.4 minutes
Semi major axis: 16620 km
RCS: Unknown
Launch date: February 17, 2024
Source: India (IND)
Launch site: SRIHARIKOTA (SRI)

Note: This is a ROCKET BODY
Your satellite tracking list
Your tracking list is empty




NASA's NSSDC Master Catalog

Two Line Element Set (TLE):
1 58991U 24033B   26194.29311174  .00107863  24073-6  14834-2 0  9993
2 58991  19.3049 128.5668 6058467  18.0957 356.3215  4.05183949 26468
Source of the keplerian elements: AFSPC